BTK6352 WIII-WAHS

Flight info

Callsign BTK6352
Flight time 0h 40m
Altitude 27000
Route CA
Aircraft A320/M-SDE3FGHIRWY/LB1

Departure

Time 2026-04-21 10:38
Airport Soekarno-Hatta International Airport (WIII)

Arrival

Time 2026-04-21 11:19
Airport Jenderal Ahmad Yani Airport (WAHS)
Time Latitude Longitude Altitude Speed Heading
2026-04-21 10:08 -6.12282 106.64863 38 ft 0 kts 137°
2026-04-21 10:29 -6.12265 106.64847 36 ft 4 kts 137°
2026-04-21 10:29 -6.12248 106.64831 38 ft 4 kts 128°
2026-04-21 10:29 -6.12236 106.64808 38 ft 4 kts 96°
2026-04-21 10:30 -6.12240 106.64784 38 ft 4 kts 47°
2026-04-21 10:30 -6.12261 106.64772 37 ft 4 kts 354°
2026-04-21 10:30 -6.12283 106.64777 36 ft 1 kts 346°
2026-04-21 10:30 -6.12284 106.64777 38 ft 0 kts 346°
2026-04-21 10:33 -6.12268 106.64773 38 ft 6 kts 343°
2026-04-21 10:34 -6.12219 106.64755 38 ft 7 kts 340°
2026-04-21 10:34 -6.12175 106.64739 38 ft 8 kts 339°
2026-04-21 10:34 -6.12108 106.64712 36 ft 11 kts 338°
2026-04-21 10:34 -6.12035 106.64683 39 ft 12 kts 337°
2026-04-21 10:35 -6.12004 106.64621 39 ft 11 kts 261°
2026-04-21 10:35 -6.12038 106.64529 39 ft 15 kts 248°
2026-04-21 10:35 -6.12079 106.64427 37 ft 17 kts 248°
2026-04-21 10:35 -6.12124 106.64315 39 ft 18 kts 248°
2026-04-21 10:36 -6.12167 106.64205 39 ft 15 kts 248°
2026-04-21 10:36 -6.12207 106.64105 37 ft 16 kts 248°
2026-04-21 10:36 -6.12249 106.64000 39 ft 17 kts 248°
2026-04-21 10:36 -6.12229 106.63895 40 ft 17 kts 328°
2026-04-21 10:37 -6.12128 106.63905 41 ft 12 kts 15°
2026-04-21 10:37 -6.12074 106.63946 40 ft 6 kts 69°
2026-04-21 10:37 -6.12063 106.63977 40 ft 5 kts 69°
2026-04-21 10:37 -6.11991 106.64161 41 ft 65 kts 68°
2026-04-21 10:38 -6.11738 106.64789 44 ft 126 kts 69°
2026-04-21 10:38 -6.11346 106.65769 52 ft 173 kts 66°
2026-04-21 10:38 -6.10896 106.66929 565 ft 182 kts 67°
2026-04-21 10:38 -6.10410 106.68095 1336 ft 180 kts 57°
2026-04-21 10:39 -6.09644 106.69093 2003 ft 185 kts 45°
2026-04-21 10:39 -6.08699 106.70065 2308 ft 205 kts 43°
2026-04-21 10:39 -6.07625 106.71127 2574 ft 226 kts 45°
2026-04-21 10:39 -6.06460 106.72289 3036 ft 242 kts 45°
2026-04-21 10:40 -6.05257 106.73501 3789 ft 247 kts 45°
2026-04-21 10:40 -6.04033 106.74748 4430 ft 259 kts 46°
2026-04-21 10:40 -6.02741 106.76079 5014 ft 272 kts 46°
2026-04-21 10:40 -6.01413 106.77460 5633 ft 276 kts 47°
2026-04-21 10:41 -6.00079 106.78851 6522 ft 278 kts 47°
2026-04-21 10:41 -5.98753 106.80277 7348 ft 281 kts 53°
2026-04-21 10:41 -5.97962 106.82060 8093 ft 284 kts 82°
2026-04-21 10:41 -5.98155 106.84027 8846 ft 287 kts 108°
2026-04-21 10:42 -5.98801 106.85909 9606 ft 290 kts 109°
2026-04-21 10:42 -5.99474 106.87830 10349 ft 293 kts 109°
2026-04-21 10:42 -6.00168 106.89811 10728 ft 312 kts 109°
2026-04-21 10:42 -6.00910 106.91942 10897 ft 335 kts 109°
2026-04-21 10:43 -6.01693 106.94198 11285 ft 347 kts 108°
2026-04-21 10:43 -6.02488 106.96508 11911 ft 352 kts 108°
2026-04-21 10:43 -6.03020 106.98055 12337 ft 354 kts 108°
2026-04-21 10:43 -6.04101 107.01208 12889 ft 359 kts 108°
2026-04-21 10:44 -6.04672 107.02780 13173 ft 362 kts 110°
2026-04-21 10:44 -6.05616 107.05138 13839 ft 364 kts 112°
2026-04-21 10:44 -6.06622 107.07486 14456 ft 368 kts 113°
2026-04-21 10:44 -6.07664 107.09847 15025 ft 372 kts 113°
2026-04-21 10:45 -6.08720 107.12229 15584 ft 375 kts 113°
2026-04-21 10:45 -6.09777 107.14635 16139 ft 378 kts 112°
2026-04-21 10:45 -6.10830 107.17066 16680 ft 381 kts 112°
2026-04-21 10:45 -6.11882 107.19520 17193 ft 384 kts 112°
2026-04-21 10:46 -6.12934 107.21997 17693 ft 387 kts 112°
2026-04-21 10:46 -6.13992 107.24494 18173 ft 390 kts 112°
2026-04-21 10:46 -6.15060 107.27011 18646 ft 393 kts 112°
2026-04-21 10:46 -6.16138 107.29549 19096 ft 396 kts 112°
2026-04-21 10:47 -6.17226 107.32107 19528 ft 400 kts 112°
2026-04-21 10:47 -6.18324 107.34686 19952 ft 403 kts 112°
2026-04-21 10:47 -6.19430 107.37286 20358 ft 406 kts 112°
2026-04-21 10:47 -6.20544 107.39906 20765 ft 409 kts 112°
2026-04-21 10:48 -6.21668 107.42546 21146 ft 412 kts 112°
2026-04-21 10:48 -6.22803 107.45204 21529 ft 416 kts 112°
2026-04-21 10:48 -6.23949 107.47880 21892 ft 418 kts 112°
2026-04-21 10:48 -6.25099 107.50577 22248 ft 421 kts 112°
2026-04-21 10:49 -6.26256 107.53299 22602 ft 424 kts 112°
2026-04-21 10:49 -6.27415 107.56035 22939 ft 427 kts 112°
2026-04-21 10:49 -6.28582 107.58781 23262 ft 429 kts 112°
2026-04-21 10:49 -6.29763 107.61554 23601 ft 432 kts 112°
2026-04-21 10:50 -6.30949 107.64339 23917 ft 435 kts 112°
2026-04-21 10:50 -6.32141 107.67135 24237 ft 437 kts 112°
2026-04-21 10:50 -6.33344 107.69959 24549 ft 440 kts 112°
2026-04-21 10:50 -6.34547 107.72792 24873 ft 442 kts 112°
2026-04-21 10:51 -6.35752 107.75639 25180 ft 444 kts 112°
2026-04-21 10:51 -6.36960 107.78499 25493 ft 445 kts 112°
2026-04-21 10:51 -6.38177 107.81370 25788 ft 447 kts 112°
2026-04-21 10:51 -6.39404 107.84250 26079 ft 449 kts 112°
2026-04-21 10:52 -6.40636 107.87141 26362 ft 451 kts 112°
2026-04-21 10:52 -6.41870 107.90045 26641 ft 453 kts 112°
2026-04-21 10:52 -6.43107 107.92958 26786 ft 453 kts 112°
2026-04-21 10:52 -6.44335 107.95851 26814 ft 448 kts 112°
2026-04-21 10:53 -6.45555 107.98722 26813 ft 446 kts 112°
2026-04-21 10:53 -6.46771 108.01587 26813 ft 445 kts 112°
2026-04-21 10:53 -6.47985 108.04449 26813 ft 445 kts 112°
2026-04-21 10:53 -6.49200 108.07312 26813 ft 445 kts 112°
2026-04-21 10:54 -6.50412 108.10176 26811 ft 445 kts 112°
2026-04-21 10:54 -6.51624 108.13040 26813 ft 445 kts 112°
2026-04-21 10:54 -6.52840 108.15905 26814 ft 445 kts 112°
2026-04-21 10:54 -6.54055 108.18769 26812 ft 445 kts 112°
2026-04-21 10:55 -6.55253 108.21597 26810 ft 445 kts 112°
2026-04-21 10:55 -6.56480 108.24494 26808 ft 445 kts 112°
2026-04-21 10:55 -6.57693 108.27356 26806 ft 445 kts 112°
2026-04-21 10:55 -6.58890 108.30183 26805 ft 445 kts 112°
2026-04-21 10:56 -6.60100 108.33045 26806 ft 445 kts 112°
2026-04-21 10:56 -6.61309 108.35907 26806 ft 445 kts 112°
2026-04-21 10:56 -6.62517 108.38769 26806 ft 445 kts 112°
2026-04-21 10:56 -6.63726 108.41632 26807 ft 445 kts 112°
2026-04-21 10:57 -6.64938 108.44495 26807 ft 445 kts 112°
2026-04-21 10:57 -6.66152 108.47358 26808 ft 445 kts 112°
2026-04-21 10:57 -6.67366 108.50223 26809 ft 445 kts 112°
2026-04-21 10:57 -6.68578 108.53088 26809 ft 445 kts 112°
2026-04-21 10:58 -6.69666 108.55999 26809 ft 444 kts 105°
2026-04-21 10:58 -6.70296 108.59036 26809 ft 444 kts 98°
2026-04-21 10:58 -6.70775 108.62102 26809 ft 444 kts 98°
2026-04-21 10:58 -6.71262 108.65168 26809 ft 444 kts 98°
2026-04-21 10:59 -6.71754 108.68234 26808 ft 444 kts 98°
2026-04-21 10:59 -6.72248 108.71300 26808 ft 444 kts 98°
2026-04-21 10:59 -6.72743 108.74368 26808 ft 444 kts 98°
2026-04-21 10:59 -6.73238 108.77435 26809 ft 444 kts 98°
2026-04-21 11:00 -6.73733 108.80504 26809 ft 444 kts 98°
2026-04-21 11:00 -6.74227 108.83572 26809 ft 444 kts 98°
2026-04-21 11:00 -6.74719 108.86643 26808 ft 445 kts 98°
2026-04-21 11:00 -6.75208 108.89715 26808 ft 445 kts 98°
2026-04-21 11:01 -6.75697 108.92790 26747 ft 446 kts 98°
2026-04-21 11:01 -6.76184 108.95860 26496 ft 444 kts 98°
2026-04-21 11:01 -6.76668 108.98917 26217 ft 441 kts 98°
2026-04-21 11:02 -6.77629 109.04950 24993 ft 433 kts 98°
2026-04-21 11:02 -6.78107 109.07930 24397 ft 430 kts 98°
2026-04-21 11:02 -6.78579 109.10883 23820 ft 425 kts 98°
2026-04-21 11:02 -6.79047 109.13812 23245 ft 421 kts 98°
2026-04-21 11:03 -6.79483 109.16668 22713 ft 417 kts 98°
2026-04-21 11:03 -6.79895 109.19538 22185 ft 412 kts 97°
2026-04-21 11:03 -6.80288 109.22377 21690 ft 408 kts 97°
2026-04-21 11:03 -6.80670 109.25187 21196 ft 403 kts 97°
2026-04-21 11:04 -6.81051 109.27964 20714 ft 398 kts 97°
2026-04-21 11:04 -6.81432 109.30709 20230 ft 394 kts 97°
2026-04-21 11:04 -6.81812 109.33428 19730 ft 391 kts 97°
2026-04-21 11:04 -6.82192 109.36122 19237 ft 387 kts 97°
2026-04-21 11:05 -6.82571 109.38795 18731 ft 385 kts 97°
2026-04-21 11:05 -6.82945 109.41450 18225 ft 382 kts 97°
2026-04-21 11:05 -6.83315 109.44088 17708 ft 380 kts 97°
2026-04-21 11:05 -6.83684 109.46709 17193 ft 377 kts 97°
2026-04-21 11:06 -6.84051 109.49316 16676 ft 375 kts 97°
2026-04-21 11:06 -6.84414 109.51910 16158 ft 373 kts 97°
2026-04-21 11:06 -6.84776 109.54490 15643 ft 371 kts 97°
2026-04-21 11:06 -6.85137 109.57056 15129 ft 370 kts 97°
2026-04-21 11:07 -6.85498 109.59608 14625 ft 367 kts 97°
2026-04-21 11:07 -6.85856 109.62146 14115 ft 365 kts 97°
2026-04-21 11:07 -6.86213 109.64669 13606 ft 363 kts 97°
2026-04-21 11:07 -6.86567 109.67175 13090 ft 361 kts 97°
2026-04-21 11:08 -6.86919 109.69665 12583 ft 358 kts 97°
2026-04-21 11:08 -6.87265 109.72124 12219 ft 351 kts 97°
2026-04-21 11:08 -6.87605 109.74544 11749 ft 347 kts 97°
2026-04-21 11:08 -6.87940 109.76943 11235 ft 345 kts 97°
2026-04-21 11:09 -6.88271 109.79328 10722 ft 343 kts 98°
2026-04-21 11:09 -6.88601 109.81682 10444 ft 334 kts 98°
2026-04-21 11:09 -6.88918 109.83951 10310 ft 321 kts 98°
2026-04-21 11:09 -6.89221 109.86135 10188 ft 309 kts 98°
2026-04-21 11:10 -6.89419 109.88248 10047 ft 299 kts 89°
2026-04-21 11:10 -6.89175 109.90299 9805 ft 293 kts 79°
2026-04-21 11:10 -6.88794 109.92308 9414 ft 293 kts 79°
2026-04-21 11:10 -6.88416 109.94322 9035 ft 291 kts 80°
2026-04-21 11:11 -6.88042 109.96331 8591 ft 292 kts 80°
2026-04-21 11:11 -6.87673 109.98318 8268 ft 287 kts 80°
2026-04-21 11:11 -6.87310 110.00290 7857 ft 286 kts 80°
2026-04-21 11:11 -6.86958 110.02220 7410 ft 282 kts 80°
2026-04-21 11:12 -6.86608 110.04148 6702 ft 280 kts 80°
2026-04-21 11:12 -6.86258 110.06068 6124 ft 277 kts 81°
2026-04-21 11:12 -6.85912 110.07954 5608 ft 272 kts 81°
2026-04-21 11:12 -6.85563 110.09822 5090 ft 272 kts 81°
2026-04-21 11:13 -6.85211 110.11679 4573 ft 269 kts 80°
2026-04-21 11:13 -6.84858 110.13532 4077 ft 271 kts 80°
2026-04-21 11:13 -6.84509 110.15385 3748 ft 265 kts 80°
2026-04-21 11:13 -6.84181 110.17150 3686 ft 249 kts 80°
2026-04-21 11:14 -6.83875 110.18816 3601 ft 236 kts 81°
2026-04-21 11:14 -6.83766 110.20415 3500 ft 224 kts 97°
2026-04-21 11:14 -6.84190 110.21876 3393 ft 214 kts 117°
2026-04-21 11:14 -6.85033 110.23065 3300 ft 205 kts 130°
2026-04-21 11:15 -6.85949 110.24149 3089 ft 203 kts 130°
2026-04-21 11:15 -6.86863 110.25230 2832 ft 203 kts 130°
2026-04-21 11:15 -6.87774 110.26310 2577 ft 199 kts 130°
2026-04-21 11:15 -6.88637 110.27333 2315 ft 185 kts 131°
2026-04-21 11:16 -6.89441 110.28286 2074 ft 173 kts 131°
2026-04-21 11:16 -6.90191 110.29174 1866 ft 158 kts 131°
2026-04-21 11:16 -6.90882 110.29993 1647 ft 150 kts 131°
2026-04-21 11:16 -6.91548 110.30782 1452 ft 146 kts 131°
2026-04-21 11:17 -6.92204 110.31558 1260 ft 145 kts 132°
2026-04-21 11:17 -6.92859 110.32334 1069 ft 146 kts 132°
2026-04-21 11:17 -6.93516 110.33115 876 ft 147 kts 131°
2026-04-21 11:17 -6.94180 110.33901 664 ft 148 kts 130°
2026-04-21 11:18 -6.94852 110.34684 466 ft 148 kts 130°
2026-04-21 11:18 -6.95504 110.35475 288 ft 147 kts 130°
2026-04-21 11:18 -6.96164 110.36265 64 ft 147 kts 130°
2026-04-21 11:18 -6.96793 110.37005 7 ft 124 kts 130°
2026-04-21 11:19 -6.97239 110.37533 5 ft 74 kts 130°
2026-04-21 11:19 -6.97480 110.37816 8 ft 42 kts 130°
2026-04-21 11:19 -6.97630 110.37993 7 ft 27 kts 130°
2026-04-21 11:19 -6.97690 110.38110 7 ft 10 kts 139°
2026-04-21 11:20 -6.97723 110.38086 6 ft 7 kts 291°
2026-04-21 11:20 -6.97673 110.38047 6 ft 8 kts 313°
2026-04-21 11:20 -6.97630 110.37995 7 ft 14 kts 310°
2026-04-21 11:20 -6.97546 110.37896 7 ft 22 kts 310°
2026-04-21 11:21 -6.97451 110.37785 7 ft 21 kts 310°
2026-04-21 11:21 -6.97343 110.37658 6 ft 24 kts 310°
2026-04-21 11:21 -6.97239 110.37535 5 ft 23 kts 310°
2026-04-21 11:21 -6.97145 110.37423 5 ft 14 kts 312°
2026-04-21 11:22 -6.97073 110.37440 8 ft 11 kts 36°
2026-04-21 11:22 -6.97024 110.37481 15 ft 9 kts 39°
2026-04-21 11:22 -6.96971 110.37525 19 ft 10 kts 39°
2026-04-21 11:22 -6.96931 110.37558 18 ft 7 kts 38°
2026-04-21 11:23 -6.96896 110.37551 20 ft 9 kts 321°
2026-04-21 11:23 -6.96858 110.37507 18 ft 6 kts 310°
2026-04-21 11:23 -6.96819 110.37460 20 ft 8 kts 310°
2026-04-21 11:23 -6.96798 110.37444 19 ft 1 kts 357°
2026-04-21 11:24 -6.96773 110.37460 21 ft 5 kts 39°
2026-04-21 11:24 -6.96754 110.37475 20 ft 4 kts 38°
2026-04-21 11:24 -6.96737 110.37489 21 ft 0 kts 40°